EW5770 Weather Reports


Display with metric or nautical units.
time (UTC)temp
F
wind
direction
speed
MPH
gust
MPH
rain 1hr
in
rain 24hr
in
rain mn
in
humidity
%
barometer
mb
20260905224223 73 0 0.0 0.0 0.00 0.00 0.00 90 1018.8
20260905223222 73 0 0.0 0.0 0.00 0.00 0.00 90 1018.8
20260905222216 73 0 0.0 0.0 0.00 0.00 0.00 91 1018.8
20260905221222 73 0 0.0 0.0 0.00 0.00 0.00 90 1018.7
20260905215223 74 0 0.0 0.0 0.00 0.00 0.00 90 1018.6
20260905214222 74 0 0.0 0.0 0.00 0.00 0.00 89 1018.6
20260905213222 74 0 0.0 0.0 0.00 0.00 0.00 89 1018.5
20260905212221 74 0 0.0 0.0 0.00 0.00 0.00 89 1018.3
20260905210218 75 0 0.0 0.0 0.00 0.00 0.00 88 1018.2
20260905205216 75 0 0.0 0.0 0.00 0.00 0.00 87 1018.2
20260905203216 76 0 0.0 0.0 0.00 0.00 0.00 87 1018.1
20260905202216 76 0 0.0 0.0 0.00 0.00 0.00 87 1018.1
20260905200216 77 0 0.0 0.0 0.00 0.00 0.00 85 1018.0
20260905195216 77 0 0.0 0.0 0.00 0.00 0.00 84 1018.0
20260905194216 78 0 0.0 0.0 0.00 0.00 0.00 83 1018.0
20260905193216 78 0 0.0 0.0 0.00 0.00 0.00 82 1017.9
20260905192216 79 0 0.0 0.0 0.00 0.00 0.00 82 1017.9
20260905191216 79 0 0.0 0.0 0.00 0.00 0.00 81 1017.9
20260905190216 79 0 0.0 0.0 0.00 0.00 0.00 81 1017.8
20260905185215 79 0 0.0 0.0 0.00 0.00 0.00 82 1017.8
20260905184216 79 0 0.0 0.0 0.00 0.00 0.00 82 1017.6
20260905183216 79 0 0.0 0.0 0.00 0.00 0.00 81 1017.4
20260905182216 79 0 0.0 0.0 0.00 0.00 0.00 81 1017.3
20260905181216 79 226 0.0 1.0 0.00 0.00 0.00 81 1017.2
20260905180217 79 0 0.0 0.0 0.00 0.00 0.00 81 1017.2
20260905175216 79 222 0.0 1.0 0.00 0.00 0.00 81 1017.2
20260905174216 80 0 0.0 0.0 0.00 0.00 0.00 80 1017.0
20260905173216 80 0 0.0 0.0 0.00 0.00 0.00 80 1017.0
20260905172217 80 216 0.0 1.0 0.00 0.00 0.00 80 1017.0
20260905171217 80 130 0.0 1.0 0.00 0.00 0.00 80 1016.9
20260905170216 80 0 0.0 0.0 0.00 0.00 0.00 80 1016.9
20260905164216 80 0 0.0 0.0 0.00 0.00 0.00 79 1016.9
20260905163216 80 0 0.0 0.0 0.00 0.00 0.00 78 1016.9
20260905162216 80 0 0.0 0.0 0.00 0.00 0.00 78 1016.9
20260905161216 80 178 0.0 1.0 0.00 0.00 0.00 78 1017.0
20260905160218 80 232 0.0 1.0 0.00 0.00 0.00 78 1017.0
20260905155216 80 0 0.0 0.0 0.00 0.00 0.00 78 1017.1
20260905153216 80 212 0.0 1.0 0.00 0.00 0.00 77 1017.1
20260905151222 80 236 0.0 1.0 0.00 0.00 0.00 77 1017.2
20260905150216 81 240 0.0 1.0 0.00 0.00 0.00 77 1017.3
20260905145221 81 241 0.0 1.0 0.00 0.00 0.00 77 1017.3
20260905143216 81 0 0.0 0.0 0.00 0.00 0.00 75 1017.3
20260905142216 81 0 0.0 0.0 0.00 0.00 0.00 76 1017.4
20260905141217 82 229 0.0 1.0 0.00 0.00 0.00 74 1017.4
20260905140218 82 222 0.0 1.0 0.00 0.00 0.00 74 1017.3
20260905134220 83 257 0.0 1.0 0.00 0.00 0.00 73 1017.3
20260905133216 82 246 0.0 1.0 0.00 0.00 0.00 73 1017.5
20260905132217 82 242 0.0 1.0 0.00 0.00 0.00 73 1017.6
20260905131216 82 234 0.0 1.0 0.00 0.00 0.00 72 1017.5
20260905130217 83 231 0.0 1.0 0.00 0.00 0.00 72 1017.6
20260905125216 83 225 0.0 1.0 0.00 0.00 0.00 71 1017.6
20260905124220 83 205 1.0 3.0 0.00 0.00 0.00 71 1017.6
20260905123216 82 240 0.0 1.0 0.00 0.00 0.00 73 1017.7
20260905122219 83 241 0.0 1.0 0.00 0.00 0.00 72 1017.8
20260905121217 83 239 0.0 10.0 0.00 0.00 0.00 72 1018.0
20260905115217 82 238 0.0 2.0 0.00 0.00 0.00 72 1018.0
20260905114221 82 237 0.0 1.0 0.00 0.00 0.00 71 1018.0
20260905113219 82 239 1.0 10.0 0.00 0.00 0.00 70 1017.9
20260905112216 82 144 0.0 1.0 0.00 0.00 0.00 70 1017.9
20260905111220 82 248 0.0 1.0 0.00 0.00 0.00 71 1017.9
20260905110217 82 236 0.0 1.0 0.00 0.00 0.00 70 1018.0
20260905105216 82 222 0.0 1.0 0.00 0.00 0.00 73 1018.1
20260905103221 80 0 0.0 0.0 0.00 0.00 0.00 75 1018.2
20260905101218 80 235 0.0 1.0 0.00 0.00 0.00 75 1018.2
20260905100220 80 223 0.0 1.0 0.00 0.00 0.00 76 1018.2
20260905095217 80 0 0.0 0.0 0.00 0.00 0.00 75 1018.2
20260905094219 80 0 0.0 0.0 0.00 0.00 0.00 75 1018.4
20260905093217 80 238 0.0 1.0 0.00 0.00 0.00 73 1018.2
20260905092218 80 0 0.0 0.0 0.00 0.00 0.00 74 1018.2
20260905091222 81 0 0.0 0.0 0.00 0.00 0.00 70 1018.1
20260905090220 80 0 0.0 0.0 0.00 0.00 0.00 70 1018.2
20260905085219 78 0 0.0 0.0 0.00 0.00 0.00 72 1018.3
20260905084223 77 0 0.0 0.0 0.00 0.00 0.00 72 1018.1
20260905083223 77 0 0.0 0.0 0.00 0.00 0.00 72 1018.1
20260905082219 76 0 0.0 0.0 0.00 0.00 0.00 73 1018.0
20260905081221 75 0 0.0 0.0 0.00 0.00 0.00 74 1018.0
20260905080221 74 0 0.0 0.0 0.00 0.00 0.00 75 1017.9
20260905072218 73 0 0.0 0.0 0.00 0.00 0.00 78 1018.0
20260905071222 72 0 0.0 0.0 0.00 0.00 0.00 76 1017.9
20260905070220 72 0 0.0 0.0 0.00 0.00 0.00 76 1017.9
20260905065222 72 0 0.0 0.0 0.00 0.00 0.00 76 1017.8
20260905064224 71 0 0.0 0.0 0.00 0.00 0.00 80 1017.8
20260905063225 71 0 0.0 0.0 0.00 0.00 0.00 80 1017.8
20260905062219 71 0 0.0 0.0 0.00 0.00 0.00 81 1017.8
20260905060224 71 0 0.0 0.0 0.00 0.00 0.00 76 1017.7
20260905055222 70 0 0.0 0.0 0.00 0.00 0.00 78 1017.5
20260905054224 70 0 0.0 0.0 0.00 0.00 0.00 80 1017.4
20260905053222 70 0 0.0 0.0 0.00 0.00 0.00 79 1017.5
20260905051221 70 0 0.0 0.0 0.00 0.00 0.00 75 1017.4
20260905050225 69 0 0.0 0.0 0.00 0.00 0.00 75 1017.2
20260905045222 69 0 0.0 0.0 0.00 0.00 0.00 75 1017.2
20260905044224 69 0 0.0 0.0 0.00 0.00 0.00 78 1017.3
20260905043223 69 0 0.0 0.0 0.00 0.00 0.00 75 1017.3
20260905042219 69 0 0.0 0.0 0.00 0.00 0.00 75 1017.1
20260905041222 69 0 0.0 0.0 0.00 0.00 0.00 76 1017.1
20260905040224 68 0 0.0 0.0 0.00 0.00 0.00 76 1017.4
20260905035225 68 0 0.0 0.0 0.00 0.00 0.00 77 1017.3
20260905034217 68 0 0.0 0.0 0.00 0.00 0.00 77 1017.3
20260905033223 68 0 0.0 0.0 0.00 0.00 0.00 74 1017.4
20260905031217 68 0 0.0 0.0 0.00 0.00 0.00 77 1017.5
20260905030218 68 0 0.0 0.0 0.00 0.00 0.00 76 1017.4
20260905025219 68 0 0.0 0.0 0.00 0.00 0.00 77 1017.5
20260905023226 68 0 0.0 0.0 0.00 0.00 0.00 77 1017.5
20260905022224 68 0 0.0 0.0 0.00 0.00 0.00 75 1017.6
20260905021221 68 0 0.0 0.0 0.00 0.00 0.00 74 1017.7
20260905020222 68 0 0.0 0.0 0.00 0.00 0.00 74 1017.7
20260905015225 68 0 0.0 0.0 0.00 0.00 0.00 77 1017.8
20260905014224 68 0 0.0 0.0 0.00 0.00 0.00 79 1017.8
20260905013222 68 0 0.0 0.0 0.00 0.00 0.00 74 1017.8
20260905012220 68 0 0.0 0.0 0.00 0.00 0.00 75 1017.8
20260905011222 67 0 0.0 0.0 0.00 0.00 0.00 78 1017.8
20260905010220 67 0 0.0 0.0 0.00 0.00 0.00 80 1017.8
20260905005223 68 0 0.0 0.0 0.00 0.00 0.00 83 1017.8
20260905003219 68 0 0.0 0.0 0.00 0.00 0.00 73 1017.6
20260905001222 68 0 0.0 0.0 0.00 0.00 0.00 76 1018.1
20260905000218 69 0 0.0 0.0 0.00 0.00 0.00 72 1018.0
20260904235224 69 0 0.0 0.0 0.00 0.00 0.00 75 1018.1
20260904234224 69 0 0.0 0.0 0.00 0.00 0.00 76 1018.3
20260904233222 68 0 0.0 0.0 0.00 0.00 0.00 80 1018.2
20260904232218 69 0 0.0 0.0 0.00 0.00 0.00 80 1018.3
20260904230226 69 0 0.0 0.0 0.00 0.00 0.00 74 1018.1
20260904225224 69 0 0.0 0.0 0.00 0.00 0.00 75 1018.2